Theta_e
337 329 325 324 308 308 306 309 317 317 317 322 321 319 317 318 315 311 336 339 349 346 349 350 354 353 352 352 351 350 349 347 347 345 343 341 340 337 336 336 336 336 337 338 339 339 340 340 338
328 319 322 317 307 304 306 314 313 318 321 322 320 320 318 316 323 330 334 341 348 348 349 347 354 354 353 353 352 351 350 349 348 347 345 342 341 340 338 338 338 338 340 340 340 341 344 344 343
331 321 315 312 309 305 307 316 317 321 324 319 317 322 319 318 325 330 339 342 348 348 349 347 354 354 354 354 352 351 350 350 349 348 346 344 343 343 343 341 340 340 341 343 343 343 343 346 346
325 318 316 310 309 313 313 319 322 321 323 322 319 315 323 327 327 331 337 339 342 349 348 353 354 354 354 354 353 352 351 351 350 349 348 347 346 347 347 344 343 342 343 344 346 346 347 347 346
323 315 308 306 308 313 317 320 321 321 322 321 320 316 319 328 332 333 339 339 338 342 350 353 354 354 355 355 354 353 352 351 351 350 349 348 348 348 348 347 345 346 346 347 346 347 347 346 345
311 313 305 304 309 314 317 319 320 318 319 320 319 318 321 329 330 332 333 336 337 338 347 354 354 354 354 354 354 353 352 352 352 351 351 350 350 350 349 349 348 347 346 346 345 345 344 343 344
309 309 306 308 309 311 315 319 317 317 317 317 322 316 321 326 330 331 333 332 335 337 341 354 353 353 355 354 354 353 353 352 352 352 352 352 351 350 350 349 346 345 344 343 342 342 343 343 343
312 310 306 309 309 309 316 317 319 317 317 323 323 315 320 327 330 329 329 329 330 333 338 352 353 353 351 350 355 354 354 354 353 353 353 352 350 349 350 349 345 343 340 339 339 339 340 342 344
316 305 304 308 309 311 317 315 319 323 320 321 322 322 324 328 328 328 328 327 327 330 338 343 352 353 351 347 350 355 355 354 354 352 352 350 344 341 344 346 343 342 340 339 337 336 337 339 340
313 306 306 313 315 313 316 317 318 318 318 319 321 325 326 327 327 325 325 324 325 329 332 338 348 352 350 345 346 351 351 351 350 348 346 346 343 345 342 342 342 341 339 336 336 337 339 339 335
313 307 311 314 317 318 317 317 320 317 316 319 319 322 325 325 327 326 325 325 326 329 334 336 346 349 349 345 346 350 347 347 347 347 346 346 347 345 342 340 340 338 338 334 335 335 336 336 335
309 313 314 315 317 316 316 319 317 317 318 322 323 325 325 324 325 325 325 325 326 330 333 345 343 348 348 346 346 350 348 346 345 345 347 346 346 344 343 340 341 338 339 336 336 334 337 336 335
310 312 314 316 317 317 318 316 316 316 321 323 323 324 324 324 326 327 327 328 332 333 336 344 345 347 349 353 343 347 348 346 345 345 347 345 342 342 345 343 343 343 341 338 339 337 335 336 333
314 313 313 315 315 316 313 314 315 317 321 321 322 323 323 324 325 326 327 329 335 341 339 346 346 347 350 345 352 347 351 346 345 344 346 345 343 344 344 344 342 343 344 339 337 334 335 332 335
311 309 312 313 314 314 316 311 312 317 319 319 320 321 323 324 325 324 327 333 339 339 341 348 351 350 350 348 349 355 349 350 345 346 349 344 345 346 345 342 342 344 342 339 337 335 333 331 334
306 307 303 310 312 314 313 304 314 319 317 317 319 320 322 323 325 326 330 340 347 344 342 351 337 351 351 351 349 351 347 347 344 345 345 345 347 346 345 341 341 343 342 340 337 335 333 331 332
304 300 302 306 312 312 311 307 314 318 317 317 319 320 320 321 325 329 334 333 339 344 348 349 348 350 352 354 353 351 355 347 347 343 342 344 344 344 342 341 342 343 340 337 335 334 333 331 330
297 299 302 303 309 311 308 308 313 317 317 317 317 319 319 320 322 328 333 334 334 345 348 351 351 354 353 353 354 350 350 348 346 344 344 346 344 344 343 342 342 341 338 336 334 332 333 332 330
302 301 300 305 309 308 308 309 311 315 315 315 317 317 318 320 325 326 331 333 336 343 351 355 353 356 351 348 346 345 341 342 344 345 346 343 344 344 343 341 340 339 336 334 334 331 329 329 330
300 299 300 305 307 307 307 307 312 314 315 316 316 318 319 319 321 323 328 334 334 344 351 352 354 354 350 349 348 347 343 340 340 343 344 344 343 344 339 340 338 338 335 333 331 330 327 328 327
299 298 299 299 304 307 306 304 308 312 315 316 317 318 318 318 318 320 323 327 342 343 346 347 349 350 351 352 349 351 347 343 341 342 342 342 342 341 339 339 337 335 334 331 331 331 328 325 327
296 302 301 301 300 296 306 296 307 309 311 313 315 316 317 320 322 322 324 328 338 340 343 344 346 351 350 352 347 342 336 336 338 339 339 340 340 337 337 338 336 336 334 333 331 333 330 327 322
298 303 302 302 300 300 300 297 302 308 306 309 313 316 317 319 320 320 323 335 337 339 341 343 347 348 349 348 344 341 340 341 341 339 340 340 340 338 336 336 336 334 334 334 332 331 329 329 326
304 301 301 301 300 294 300 298 299 303 306 310 314 315 318 319 321 324 333 335 336 339 341 345 345 345 343 343 343 342 343 340 336 336 336 337 337 337 336 334 333 334 334 334 333 332 330 328 327
300 299 292 290 291 291 301 298 301 308 310 311 312 313 317 323 327 330 330 332 334 337 340 340 340 337 341 341 340 343 342 341 338 337 337 334 334 335 334 334 330 332 335 335 334 333 331 329 328
298 299 293 286 288 292 300 295 300 311 313 315 314 316 320 324 328 329 331 331 334 337 337 336 337 336 338 338 340 342 342 337 339 338 335 335 334 333 335 331 332 335 335 334 334 333 333 332 330
297 294 301 296 298 294 299 303 308 311 311 313 313 315 323 325 327 329 331 332 334 335 336 336 336 336 337 338 340 340 341 337 338 338 339 336 335 333 334 333 334 335 334 334 332 330 332 332 333
299 302 294 297 289 290 295 299 299 306 308 311 312 316 323 326 327 329 330 332 334 335 336 337 336 335 336 338 338 336 338 338 338 338 337 335 335 335 334 331 334 334 332 331 332 333 333 332 332
297 296 298 301 298 292 292 296 308 307 309 311 313 320 324 325 326 328 330 332 334 334 336 336 335 334 335 336 338 337 336 333 334 335 334 334 335 333 332 331 330 330 329 332 333 332 332 331 331
301 298 299 295 294 298 298 298 314 313 312 315 318 322 324 326 326 327 329 330 330 332 333 333 333 331 334 334 335 336 336 333 335 335 331 335 334 333 332 331 328 330 331 333 330 331 330 330 330
Wind_Speed
7 9 6 7 6 7 14 19 15 4 6 6 3 1 10 9 8 5 12 8 21 18 18 20 20 20 19 18 16 15 15 14 13 12 10 9 9 7 6 6 5 4 4 4 3 3 4 4 4
8 11 7 7 8 12 14 15 14 19 16 8 4 5 4 8 14 17 12 7 20 18 16 17 20 20 19 18 17 16 15 15 13 12 11 10 9 8 6 5 5 5 5 5 5 5 7 7 6
10 15 8 6 11 15 8 4 17 9 19 3 4 6 2 3 12 7 9 7 20 17 16 16 22 20 20 19 18 16 16 15 14 13 11 10 9 8 7 6 6 6 7 8 8 8 9 9 9
7 8 8 9 19 20 21 8 15 19 12 4 5 4 5 14 5 7 8 5 16 16 16 18 22 20 20 19 18 17 16 16 15 13 11 9 8 7 7 7 7 8 8 10 11 10 9 10 7
11 8 11 14 19 19 19 4 14 11 10 10 2 3 4 13 12 8 7 4 9 14 13 16 21 19 19 19 19 17 16 15 14 13 11 9 8 7 7 7 9 10 11 12 13 12 10 11 9
8 8 12 15 21 23 20 19 8 11 13 14 12 4 8 12 11 5 5 6 9 16 16 18 21 18 16 17 17 17 16 15 14 13 11 10 9 8 8 9 11 11 10 10 10 9 9 9 9
16 11 16 20 21 23 18 9 9 11 13 12 11 6 5 11 9 3 4 7 10 12 17 18 18 19 18 15 16 16 15 15 14 13 12 10 9 8 8 8 7 8 8 9 10 10 10 8 8
13 13 19 21 19 24 19 18 4 9 15 7 4 3 5 12 11 1 7 9 12 6 19 20 18 17 15 13 15 14 14 14 13 12 11 9 8 9 11 11 10 12 10 9 9 10 11 10 10
19 16 17 23 23 21 19 19 17 9 15 9 17 13 13 10 16 5 9 11 9 6 14 19 19 18 16 15 14 14 15 13 12 12 11 8 5 7 9 14 8 8 12 11 11 11 11 12 13
19 17 26 23 20 21 21 20 17 17 14 17 13 25 15 12 13 14 11 11 10 9 8 18 20 19 17 13 13 14 12 10 9 9 9 7 7 5 7 8 14 15 13 12 12 13 12 10 6
24 26 24 26 25 25 27 25 20 23 24 17 19 15 21 12 11 13 14 15 13 9 5 8 16 17 18 12 9 8 7 7 8 11 8 7 6 5 5 5 7 6 10 6 10 9 7 8 7
29 30 28 28 26 26 28 26 27 25 26 22 22 16 18 12 9 16 17 13 11 8 10 5 18 14 14 11 9 11 10 9 8 10 10 6 4 4 4 3 3 5 5 7 4 5 6 7 5
31 29 29 29 29 28 29 29 28 28 29 22 23 21 18 18 13 16 18 12 7 7 8 4 16 13 12 10 10 12 10 11 11 10 11 7 6 5 4 5 2 2 3 3 3 3 3 2 3
30 30 31 31 31 29 30 29 28 27 25 26 23 20 21 21 20 16 18 9 7 5 7 5 17 15 13 13 8 7 7 9 9 7 9 11 6 4 3 3 4 3 2 3 4 2 1 3 3
31 34 32 31 31 32 27 32 31 25 24 23 25 24 22 20 25 18 17 8 5 5 6 7 11 15 15 15 11 5 7 5 7 5 7 11 8 5 3 3 3 2 2 4 4 2 2 3 5
33 33 30 29 30 35 27 30 30 25 27 23 24 22 20 24 19 16 10 4 3 5 5 7 7 15 14 12 10 5 6 5 6 5 4 7 7 6 3 3 3 4 3 3 4 4 4 5 4
26 23 34 37 29 32 33 29 33 25 26 25 23 22 19 20 20 14 7 7 6 8 8 8 9 16 15 11 8 7 6 5 3 5 5 9 8 8 7 4 3 2 3 4 5 4 5 5 4
22 31 35 29 26 28 29 28 28 25 27 25 23 16 17 18 20 13 9 8 9 9 9 9 8 12 14 10 7 7 4 5 4 4 4 7 5 6 4 3 3 2 4 5 5 5 4 5 4
26 31 32 31 27 29 25 26 27 23 20 20 18 22 16 19 15 16 9 9 8 9 8 8 8 12 12 10 10 8 8 5 3 4 5 4 3 2 4 3 3 1 3 4 4 4 6 4 5
33 32 30 27 25 24 22 23 21 21 21 19 20 16 15 17 18 16 11 7 10 7 8 7 8 12 11 8 8 6 6 6 5 4 6 6 5 5 4 2 1 3 3 5 6 5 3 3 4
32 30 26 29 25 26 22 24 23 23 22 22 21 18 20 22 22 20 17 12 8 8 9 8 7 8 10 8 7 4 5 5 4 4 4 5 3 4 1 4 3 4 4 4 4 3 5 3 4
30 27 28 26 22 17 18 18 21 17 21 19 17 16 18 17 16 18 18 13 12 10 9 10 8 9 9 9 7 7 4 4 4 3 4 4 4 5 3 1 3 3 4 1 3 2 4 4 5
33 25 25 25 23 21 23 17 15 17 18 19 20 21 20 19 16 16 12 13 13 12 10 10 11 11 8 7 8 6 5 5 3 4 6 5 4 3 1 2 2 3 2 2 5 3 5 4 3
25 24 27 25 18 18 22 21 15 18 19 22 18 6 10 10 13 9 15 16 14 12 12 12 12 9 10 9 10 6 3 5 6 3 4 3 2 3 2 3 5 4 3 3 1 4 4 6 5
32 21 15 17 17 22 17 19 16 18 19 20 14 8 7 11 14 18 18 15 14 15 14 12 12 12 9 9 7 6 6 6 5 4 3 5 3 2 2 4 3 0 1 3 5 3 3 3 3
30 25 16 25 13 18 22 21 22 19 23 17 4 8 5 8 11 14 13 14 16 15 15 14 14 12 10 9 8 7 7 4 3 3 4 4 2 5 5 3 2 2 3 3 2 1 1 3 3
26 29 25 23 20 16 15 17 25 19 13 14 10 10 12 10 11 13 14 13 15 15 15 15 14 12 11 9 7 7 5 7 6 6 5 3 5 5 5 5 3 3 2 4 4 2 3 3 2
29 22 26 20 22 18 19 17 4 11 8 4 10 10 16 13 13 14 13 15 14 14 14 13 12 12 10 9 8 7 5 7 5 4 2 5 5 5 4 5 4 4 6 3 3 1 2 4 3
24 26 26 17 17 14 13 9 3 2 3 7 13 15 17 16 15 14 15 15 14 14 13 12 12 11 10 9 7 8 5 6 5 4 4 6 3 5 4 4 5 6 3 3 2 3 4 4 2
29 25 24 17 23 17 14 11 11 5 6 5 13 17 16 17 17 16 16 15 15 14 13 11 11 11 10 9 10 8 5 6 5 4 3 6 4 4 4 3 5 6 5 5 6 3 1 1 4
Wind_Direction
199 223 223 259 251 231 255 252 247 126 209 109 39 329 357 328 2 40 98 99 123 139 154 163 160 157 157 159 159 161 158 158 161 159 162 166 164 166 172 173 177 183 203 208 211 234 257 254 253
215 212 227 271 248 251 248 257 243 27 13 37 331 250 297 27 50 94 90 104 127 139 153 164 165 163 161 162 166 167 163 163 167 167 172 177 177 180 188 198 205 211 224 242 248 243 240 244 240
260 246 251 221 237 251 265 291 285 118 237 327 309 89 223 325 73 80 82 111 126 142 157 165 167 169 166 168 170 170 169 170 172 174 181 186 190 194 201 218 233 241 244 245 248 254 261 248 238
211 222 253 255 263 252 251 160 103 249 218 157 249 323 17 68 75 62 75 129 132 140 160 157 168 173 171 173 174 175 175 177 175 178 185 195 205 215 217 233 248 256 257 260 259 255 255 264 257
246 249 245 255 257 259 274 254 290 187 231 264 241 148 72 87 93 92 114 140 152 149 160 155 169 178 177 178 178 180 179 183 179 180 192 200 211 229 239 250 257 257 260 259 265 269 275 271 256
225 231 260 257 257 251 255 267 324 308 304 296 267 179 103 128 102 103 112 182 190 162 157 156 171 181 186 185 185 184 181 186 183 185 195 204 213 229 248 258 260 265 268 272 274 275 278 272 248
240 243 249 257 270 282 287 355 248 314 304 295 46 323 37 105 127 139 302 222 211 183 159 153 168 174 185 196 193 188 185 189 186 189 196 204 216 231 248 264 244 244 257 266 272 273 270 260 245
239 258 257 268 273 275 295 307 355 283 269 306 119 277 296 301 326 12 312 310 310 230 166 158 163 170 179 198 199 192 188 193 186 191 197 202 220 237 239 231 226 234 233 245 260 265 260 254 240
233 252 249 250 258 269 278 287 297 291 314 292 301 302 297 289 272 255 235 251 258 249 163 162 163 168 177 189 191 191 191 192 190 195 196 192 225 246 239 224 213 198 214 222 239 247 250 246 243
227 243 237 244 257 269 276 277 269 288 293 281 285 299 270 293 324 320 307 299 273 283 218 176 161 165 170 185 184 186 191 190 194 202 194 196 218 223 250 128 178 199 207 220 233 237 241 244 243
228 238 248 258 265 264 268 282 293 286 282 300 298 293 292 302 310 305 293 286 292 298 241 204 155 163 166 183 167 178 187 186 192 200 198 196 206 198 219 222 201 198 204 213 214 225 229 230 233
242 238 243 256 261 265 270 280 281 290 293 291 291 267 275 293 301 290 277 283 294 286 302 214 161 163 171 170 168 176 183 183 188 194 192 195 184 202 235 259 250 188 182 210 216 210 212 235 225
237 243 249 252 256 257 265 270 279 280 282 289 286 279 283 292 268 269 280 269 270 271 249 248 161 164 171 164 181 181 188 181 188 182 183 180 184 217 220 216 180 264 193 265 209 159 162 213 267
251 248 252 258 258 262 267 274 275 278 283 284 282 273 272 268 277 260 270 253 251 261 255 205 164 170 170 185 176 182 175 175 182 180 170 178 177 204 226 234 205 195 203 259 292 347 273 225 214
257 256 260 255 258 263 269 263 263 268 269 279 283 280 274 273 268 265 255 245 238 237 245 197 156 169 174 185 184 169 183 169 175 162 161 169 177 197 225 268 254 185 218 241 263 268 237 288 259
251 257 260 253 254 257 259 265 265 265 273 268 273 279 274 268 258 275 250 255 216 227 243 184 185 169 176 179 182 185 185 181 164 158 168 168 161 180 205 236 244 210 222 237 228 216 217 233 261
247 248 248 250 245 263 258 264 266 255 256 256 259 254 260 274 270 260 262 272 264 218 193 196 192 168 172 165 171 185 164 162 199 170 180 170 177 194 198 202 233 159 211 227 227 225 209 224 245
221 237 243 260 256 257 256 252 264 251 254 257 252 264 262 263 273 260 231 250 251 218 194 192 176 157 159 155 164 176 172 158 179 196 169 155 173 197 170 198 221 192 220 221 215 224 231 234 230
240 241 246 250 252 254 253 258 258 272 273 272 259 244 259 263 275 284 244 256 253 230 174 163 148 147 153 163 168 179 189 164 199 167 157 148 152 241 179 225 190 220 242 262 252 236 241 233 230
242 256 259 267 268 269 279 281 278 267 273 279 282 287 289 289 283 279 270 252 259 154 125 136 143 145 157 159 165 174 180 164 190 167 164 160 195 218 136 155 192 231 239 253 253 224 206 201 209
235 237 247 259 270 273 282 275 270 270 272 265 266 262 263 256 255 258 259 255 144 125 122 129 139 155 151 153 156 162 160 160 163 135 134 179 174 227 78 148 176 234 239 242 224 224 207 203 209
243 234 244 250 255 259 259 273 254 262 263 262 267 264 258 259 252 238 235 229 130 127 128 137 149 147 150 148 169 140 138 141 163 186 89 100 140 63 63 148 258 229 243 113 232 221 224 207 223
246 245 251 248 251 260 253 258 268 268 270 267 261 254 247 239 235 239 233 119 127 125 136 134 139 152 157 142 129 137 156 133 150 106 111 99 102 94 250 141 173 227 153 232 226 220 206 201 202
242 240 250 257 258 248 242 248 262 265 272 273 273 306 303 275 217 213 102 115 123 127 124 130 144 144 132 126 125 164 187 124 117 136 135 112 127 140 211 208 204 155 203 244 249 219 202 210 216
242 228 231 229 231 245 247 248 265 268 277 275 278 306 275 57 62 105 122 128 131 129 128 137 134 136 140 125 138 128 93 85 94 121 182 142 149 127 214 220 116 183 162 265 215 232 191 252 208
226 232 224 221 222 244 243 245 254 248 248 253 242 267 128 112 101 113 120 129 127 129 138 146 140 145 141 140 134 128 122 162 181 157 110 136 153 133 228 124 152 195 211 238 288 280 253 244 252
226 227 237 245 231 255 255 229 234 243 251 249 215 230 133 127 123 124 128 133 132 137 149 140 148 148 148 148 135 129 164 88 76 88 123 162 112 144 185 117 204 222 215 229 208 224 214 225 220
243 217 225 220 236 235 231 253 181 178 205 275 173 194 126 129 134 128 135 131 132 144 136 146 147 152 147 148 145 136 134 110 104 104 231 126 139 104 145 167 197 232 243 131 152 227 198 206 242
224 233 220 237 230 239 253 229 136 51 119 221 173 144 133 136 132 139 135 131 139 134 144 143 146 149 151 153 133 127 122 119 143 149 137 121 122 118 191 209 201 210 188 97 203 214 228 202 271
231 226 220 218 206 237 268 264 111 104 167 226 83 117 134 135 138 138 136 143 143 145 143 152 151 154 160 158 138 143 130 139 130 145 148 133 170 189 224 199 247 86 64 50 13 303 299 108 220